Weather History for KWVL - May, 2013

Change the Weather History Date:

Monday, May 13, 2013

  Actual Average Record
Temperature  
Mean Temperature 45 °F -  
Max Temperature 55 °F 68 °F 84 °F (1991)
Min Temperature 35 °F 41 °F 22 °F (1987)
Degree Days  
Heating Degree Days 20    
Moisture  
Dew Point 31 °F    
Average Humidity 57    
Maximum Humidity 100    
Minimum Humidity 33    
Precipitation  
Precipitation 0.01 in - - ()
Sea Level Pressure  
Sea Level Pressure 29.83 in    
Wind  
Wind Speed 6 mph (WSW)    
Max Wind Speed 16 mph    
Max Gust Speed 26 mph    
Visibility 10 miles    
Events      
Averages and records for this station are not official NWS values.
T = Trace of Precipitation, MM = Missing Value Source: NWS Daily Summary

Daily Weather History Graph

Daily Weather History Graph

Search for Another Location

Airport or City:

Trip Planner

Search our weather history database for the weather conditions in past years. The results will help you decide how hot, cold, wet, or windy it might be!

Date:

Astronomy

May. 13, 2013 Rise Set
Actual Time 5:13 AM EDT 7:57 PM EDT
Civil Twilight 4:39 AM EDT 8:31 PM EDT
Nautical Twilight 3:57 AM EDT 9:14 PM EDT
Astronomical Twilight 3:08 AM EDT 10:03 PM EDT
Moon 7:55 AM EDT (5/13) 11:04 PM EDT (5/13)
Length of Visible Light 15h 51m
Length of Day
14h 44m
Waxing Crescent, 12% of the Moon is Illuminated
May 13
Waxing Crescent
May 18
First Quarter
May 25
Full
May 31
Last Quarter
Jun 8
New

Hourly Weather History & Observations

Time (EDT) Temp. Windchill Dew Point Humidity Pressure Visibility Wind Dir Wind Speed Gust Speed Precip Events Conditions
12:15 AM 46.4 °F 45.2 °F 39.2 °F 76% 29.69 in 10.0 mi West 3.5 mph - N/A   Overcast
12:35 AM 46.4 °F 44.3 °F 39.2 °F 76% 29.69 in 10.0 mi West 4.6 mph - N/A   Mostly Cloudy
12:55 AM 46.4 °F 45.2 °F 37.4 °F 71% 29.70 in 10.0 mi West 3.5 mph - N/A   Clear
1:15 AM 44.6 °F 40.7 °F 35.6 °F 71% 29.70 in 10.0 mi West 6.9 mph - N/A   Clear
1:35 AM 44.6 °F 43.1 °F 37.4 °F 76% 29.70 in 10.0 mi West 3.5 mph - N/A   Clear
1:55 AM 44.6 °F 43.1 °F 37.4 °F 76% 29.70 in 10.0 mi West 3.5 mph - N/A   Clear
2:15 AM 41.0 °F - 35.6 °F 81% 29.70 in 10.0 mi Calm Calm - N/A   Clear
2:35 AM 39.2 °F 37.0 °F 37.4 °F 93% 29.71 in 10.0 mi SSW 3.5 mph - N/A   Clear
2:55 AM 39.2 °F 35.9 °F 35.6 °F 87% 29.71 in 10.0 mi SSW 4.6 mph - N/A   Clear
3:15 AM 37.4 °F 34.9 °F 35.6 °F 93% 29.71 in 10.0 mi SSW 3.5 mph - N/A   Clear
3:35 AM 37.4 °F 34.9 °F 35.6 °F 93% 29.72 in 10.0 mi SSW 3.5 mph - N/A   Clear
3:55 AM 37.4 °F - 35.6 °F 93% 29.72 in 10.0 mi Calm Calm - N/A   Clear
4:15 AM 37.4 °F 34.9 °F 35.6 °F 93% 29.72 in 10.0 mi SSW 3.5 mph - N/A   Clear
4:35 AM 37.4 °F 33.8 °F 35.6 °F 93% - 10.0 mi SSW 4.6 mph - N/A   Clear
4:55 AM 37.4 °F 32.8 °F 33.8 °F 87% - 10.0 mi South 5.8 mph - N/A   Clear
5:15 AM 35.6 °F 32.8 °F 35.6 °F 100% - 10.0 mi SW 3.5 mph - N/A   Clear
5:35 AM 35.6 °F 31.7 °F 33.8 °F 93% - 10.0 mi SSW 4.6 mph - N/A   Clear
5:55 AM 37.4 °F 34.9 °F 33.8 °F 87% - 10.0 mi SSW 3.5 mph - N/A   Clear
6:15 AM 37.4 °F 34.9 °F 33.8 °F 87% - 10.0 mi SSW 3.5 mph - N/A   Clear
6:35 AM 37.4 °F 34.9 °F 33.8 °F 87% - 10.0 mi South 3.5 mph - N/A   Clear
6:55 AM 39.2 °F 37.0 °F 33.8 °F 81% - 10.0 mi SSW 3.5 mph - N/A   Clear
7:15 AM 41.0 °F 38.0 °F 35.6 °F 81% 29.77 in 10.0 mi SSW 4.6 mph - N/A   Clear
7:36 AM 44.6 °F 41.4 °F 33.8 °F 66% 29.78 in 10.0 mi SSW 5.8 mph - N/A   Clear
7:55 AM 44.6 °F 39.7 °F 33.8 °F 66% 29.79 in 10.0 mi SW 9.2 mph - N/A   Clear
8:15 AM 46.4 °F 41.1 °F 30.2 °F 53% 29.80 in 10.0 mi SW 11.5 mph - N/A   Clear
8:35 AM 46.4 °F 40.7 °F 30.2 °F 53% 29.80 in 10.0 mi SW 12.7 mph 20.7 mph N/A   Clear
8:55 AM 46.4 °F 40.4 °F 28.4 °F 50% 29.81 in 10.0 mi SW 13.8 mph - N/A   Scattered Clouds
9:15 AM 48.2 °F - 28.4 °F 46% 29.81 in 10.0 mi SW 16.1 mph 21.9 mph N/A   Mostly Cloudy
9:35 AM 46.4 °F 41.5 °F 26.6 °F 46% 29.82 in 10.0 mi West 10.4 mph 20.7 mph N/A   Overcast
9:55 AM 46.4 °F 40.7 °F 28.4 °F 50% 29.82 in 10.0 mi WSW 12.7 mph - N/A   Mostly Cloudy
10:15 AM 48.2 °F - 28.4 °F 46% 29.82 in 10.0 mi SW 10.4 mph 16.1 mph N/A   Mostly Cloudy
10:35 AM 50.0 °F - 30.2 °F 47% 29.83 in 10.0 mi WSW 9.2 mph - N/A   Mostly Cloudy
10:55 AM 50.0 °F - 28.4 °F 43% 29.83 in 10.0 mi SW 13.8 mph 19.6 mph N/A   Mostly Cloudy
11:15 AM 51.8 °F - 28.4 °F 41% 29.83 in 10.0 mi SW 9.2 mph 19.6 mph N/A   Mostly Cloudy
11:35 AM 51.8 °F - 28.4 °F 41% 29.83 in 10.0 mi SW 16.1 mph - N/A   Mostly Cloudy
11:55 AM 51.8 °F - 28.4 °F 41% 29.83 in 10.0 mi SW 10.4 mph - N/A   Mostly Cloudy
12:15 PM 53.6 °F - 30.2 °F 41% 29.84 in 10.0 mi West 9.2 mph 19.6 mph N/A   Mostly Cloudy
12:35 PM 51.8 °F - 26.6 °F 38% 29.84 in 10.0 mi SSW 11.5 mph 19.6 mph N/A   Mostly Cloudy
12:55 PM 53.6 °F - 28.4 °F 38% 29.84 in 10.0 mi SW 6.9 mph 26.5 mph N/A   Overcast
1:15 PM 53.6 °F - 28.4 °F 38% 29.84 in 10.0 mi SW 12.7 mph 17.3 mph N/A   Overcast
1:35 PM 53.6 °F - 28.4 °F 38% 29.85 in 10.0 mi WSW 13.8 mph 19.6 mph N/A   Overcast
1:55 PM 53.6 °F - 26.6 °F 35% 29.85 in 10.0 mi SW 12.7 mph 21.9 mph N/A   Overcast
2:15 PM 53.6 °F - 26.6 °F 35% 29.85 in 10.0 mi WSW 15.0 mph 21.9 mph N/A   Overcast
2:55 PM 53.6 °F - 26.6 °F 35% 29.85 in 10.0 mi SW 12.7 mph 17.3 mph N/A   Mostly Cloudy
3:15 PM 53.6 °F - 28.4 °F 38% 29.85 in 10.0 mi SW 9.2 mph - N/A   Mostly Cloudy
3:35 PM 53.6 °F - 26.6 °F 35% 29.85 in 10.0 mi WSW 10.4 mph - N/A   Mostly Cloudy
4:35 PM 55.4 °F - 26.6 °F 33% 29.85 in 10.0 mi SSW 5.8 mph - N/A   Mostly Cloudy
4:55 PM 53.6 °F - 26.6 °F 35% 29.85 in 10.0 mi SW 9.2 mph - N/A   Overcast
5:15 PM 53.6 °F - 28.4 °F 38% 29.85 in 10.0 mi West 4.6 mph - N/A   Mostly Cloudy
5:35 PM 53.6 °F - 26.6 °F 35% 29.86 in 10.0 mi West 5.8 mph - N/A   Overcast
5:55 PM 55.4 °F - 26.6 °F 33% 29.86 in 10.0 mi West 5.8 mph - N/A   Overcast
6:15 PM 55.4 °F - 26.6 °F 33% 29.86 in 10.0 mi WNW 10.4 mph - N/A   Overcast
6:35 PM 53.6 °F - 26.6 °F 35% 29.87 in 10.0 mi WNW 9.2 mph - N/A   Overcast
6:55 PM 53.6 °F - 26.6 °F 35% 29.88 in 10.0 mi West 8.1 mph - N/A   Overcast
7:35 PM 51.8 °F - 26.6 °F 38% 29.90 in 10.0 mi NW 6.9 mph - N/A   Mostly Cloudy
8:15 PM 50.0 °F - 26.6 °F 40% 29.91 in 10.0 mi NW 8.1 mph - N/A   Overcast
8:35 PM 50.0 °F - 26.6 °F 40% 29.92 in 10.0 mi WNW 4.6 mph - N/A   Overcast
8:55 PM 48.2 °F - 28.4 °F 46% 29.94 in 10.0 mi West 5.8 mph - N/A   Overcast
9:15 PM 48.2 °F - 28.4 °F 46% 29.95 in 10.0 mi WNW 4.6 mph - N/A   Overcast
9:35 PM 48.2 °F - 28.4 °F 46% 29.96 in 10.0 mi West 4.6 mph - N/A   Overcast
9:55 PM 48.2 °F - 28.4 °F 46% 29.96 in 10.0 mi WNW 4.6 mph - N/A   Overcast
10:15 PM 48.2 °F - 30.2 °F 50% 29.97 in 10.0 mi NW 4.6 mph - N/A   Overcast
10:35 PM 46.4 °F 45.2 °F 30.2 °F 53% 29.98 in 10.0 mi NW 3.5 mph - N/A   Overcast
10:55 PM 46.4 °F 43.5 °F 28.4 °F 50% 29.98 in 10.0 mi NW 5.8 mph - N/A   Overcast
11:15 PM 46.4 °F 44.3 °F 28.4 °F 50% 29.98 in 10.0 mi NNW 4.6 mph - N/A   Mostly Cloudy
11:35 PM 46.4 °F 44.3 °F 28.4 °F 50% 29.97 in 10.0 mi NW 4.6 mph - N/A   Overcast
11:55 PM 44.6 °F 43.1 °F 28.4 °F 53% 29.97 in 10.0 mi North 3.5 mph - N/A   Mostly Cloudy